sat.trackr.live / text

‹ back to catalog

STARLINK-2654

NORAD 48454 · 2021-040AC

PAYLOAD ACTIVE UNKNOWN

§ Identity

Operator
Country
US
Launch date
2021-05-09
Launch site
AFETR
Launch vehicle
Mass (kg)
RCS (m²)

Purposes: comms

External: N2YO · Heavens-Above · Gunter

§ Orbital elements

Epoch: 2026-09-09T17:10:20.714592Z

Period
94.01 min
Inclination
53.1595°
Eccentricity
0.0001062
Mean motion
15.31720836 rev/d
Perigee alt
470.0 km
Apogee alt
471.4 km
Semi-major
6,848.8 km
B*
1.2988e-4
RAAN
41.6831°
Arg perigee
87.0955°
Mean anomaly
273.0168°
Rev number
29,488

§ Raw data

STARLINK-26541 48454U 21040AC  26252.71551753  .00003670  00000+0  12988-3 0  99992 48454  53.1595  41.6831 0001062  87.0955 273.0168 15.31720836294885

JSON: /api/v1/satellites/48454 · /tle

For live sub-satellite position, see the globe view (requires WebGL).

§ Visibility from observer

Set your observer location to see the next 7 days of passes ≥ 10°. The values pass through the URL so the page stays shareable.

No JS? Fill the form by hand. The geolocation button needs JavaScript.